Main page
METAR-TAF:

METAR-TAF

Airports :

Ardabil, Iran

Ardabil Airport

latitude: 38-19-35N, longitude: 048-25-28E, elevation: 1315 m

Current weather observation

The report was made 22 minutes ago, at 09:30 UTC
Wind 6 kt from variable directions
Temperature 20°C
Humidity 23%
Pressure 1015 hPa
Visibility 10 km or more
Few clouds at a height of 3000 ft

METAR: OITL 220930Z VRB06KT 9999 FEW030 20/M02 Q1015

Time: 13:22 (09:52 UTC)


TAF: missing

Weather observations and forecasts of more than 4000 airports (METAR and TAF reports).

The available stations are represented by yellow and red dots on the map.

Hover mouse over dot to see the name of the station.

Then click to see weather observations and forecasts.

To change the map : click on the green buttons with a black cross to zoom in, on the green button with a dash to zoom out, or on the green arrows for adjacent maps.


METAR-TAF: